Location: Hannacroix
(42.4290°N, 73.8093°W)
Time: 01:20:40
(UTC+00:00)

Daily predictions for brighter satellites

Satellite Brightness Start Highest point End
(mag) Time Altitude Azimuth Time Altitude Azimuth Time Altitude Azimuth
CENTAUR R/B 3.9 00:39:25 10° NW 00:47:39 58° WSW 00:56:26 10° SSE
Cosmos 1666 4.5 00:46:07 10° NNW 00:49:33 33° W 00:52:57 10° SSW
Sich 1 4.0 00:46:00 10° NNW 00:50:14 50° W 00:54:23 10° SSW
Okean O Rocket 4.3 00:48:17 10° SW 00:51:01 16° W 00:53:47 10° NW
Cosmos 1743 4.0 00:48:25 10° NNE 00:51:31 24° ENE 00:54:36 10° SE
Meteor 1-27 Rocket 4.2 00:47:38 10° SSE 00:53:01 43° E 00:58:31 10° NNE
Cosmos 2344 3.7 00:47:35 10° S 00:54:53 47° ESE 01:01:55 10° NE
Cosmos 1470 Rocket 4.1 00:50:48 10° N 00:54:55 41° ENE 00:59:00 10° SSE
Tsikada Rocket 4.5 00:48:47 10° NNW 00:55:02 67° W 01:01:10 10° S
Cosmos 2208 Rocket 4.2 00:51:17 10° NNW 00:56:45 86° WSW 01:02:07 10° SSE
Cosmos 2219 3.3 00:53:13 10° NNW 00:58:50 69° ENE 01:04:25 10° SSE
OAO 3 Rocket 4.1 00:54:38 10° WSW 00:59:03 34° S 01:03:30 10° ESE
USA 238 DEB 4.3 00:55:23 10° NW 01:02:40 66° WSW 01:10:18 10° SSE
USA 238 4.3 00:55:29 10° NW 01:02:47 67° WSW 01:10:25 10° SSE
Cosmos 2082 4.4 01:00:04 10° NNW 01:05:24 41° ENE 01:10:38 10° SE
Ariane Rocket 3.6 01:01:09 10° SE 01:05:53 42° ENE 01:10:40 10° N
Resurs 01 Rocket 1.9 01:02:30 10° SSE 01:06:46 51° ENE 01:11:02 10° N
Cosmos 1515 Rocket 3.8 01:03:17 10° SSE 01:07:27 48° E 01:11:43 10° NNE
Cosmos 2263 Rocket 3.7 01:03:17 10° N 01:07:43 23° NE 01:12:07 10° ESE
Meteor 1-11 Rocket 3.9 01:02:54 10° N 01:08:54 69° E 01:14:47 10° SSE
Terra 4.0 01:07:39 10° ENE 01:09:13 12° ENE 01:10:47 10° NE
Cosmos 921 Rocket 4.1 01:08:17 10° N 01:12:21 32° ENE 01:16:00 12° SE
PSLV R/B 3.8 01:08:59 10° NNE 01:13:02 73° ESE 01:17:03 10° S
IGS 5A 4.1 01:10:03 10° S 01:14:07 57° W 01:18:14 10° NNW
Landsat 7 3.9 01:10:54 10° S 01:15:37 82° WSW 01:20:22 10° NNW
ISS -1.6 01:13:25 10° NW 01:16:07 22° NNE 01:18:48 10° ENE
Okean-O 4.5 01:14:51 10° SSW 01:18:44 30° W 01:22:38 10° NW
IRAS Rocket 4.3 01:14:36 10° NNE 01:20:12 64° ESE 01:25:46 10° S
CARTOSAT-1 4.5 01:17:29 12° SE 01:20:54 33° ENE 01:24:47 10° N
Aureole 1 Rocket 2.1 01:19:04 10° SSW 01:22:21 88° ESE 01:25:21 10° NNE
Cosmos 2228 Rocket 4.4 01:21:19 13° SE 01:24:20 24° E 01:28:01 10° NE
Cosmos 2227 Rocket 2.6 01:20:53 10° NNW 01:26:31 64° WSW 01:32:05 10° S
Cosmos 1536 2.8 01:25:16 10° N 01:29:19 82° E 01:33:11 11° S
Okean 1 4.0 01:26:46 13° SSE 01:29:51 34° E 01:33:30 10° NNE
Cosmos 1980 Rocket 2.2 01:27:42 10° SSW 01:33:16 68° ESE 01:38:54 10° NNE
RESURS DK-1 2.9 01:30:21 10° S 01:34:09 37° ESE 01:37:58 10° NE
SL-4 R/B 2.3 01:30:54 10° WNW 01:35:27 66° SW 01:38:30 18° SE
ARGOS Delta rocket 4.2 01:31:02 10° N 01:36:34 88° WNW 01:41:57 10° SSW
H-2A R/B 3.2 01:34:49 10° N 01:38:42 44° WNW 01:42:37 10° SW
Cosmos 1184 Rocket 2.6 01:35:57 10° S 01:38:57 83° W 01:41:59 10° N
Cosmos 1354 Rocket 4.0 01:34:23 10° S 01:39:36 65° ESE 01:44:52 10° NNE
Spot 2 Rocket 4.4 01:36:14 16° SE 01:39:36 34° ENE 01:44:07 10° N
SPOT 3 Rocket 3.8 01:38:06 16° SE 01:42:04 57° ENE 01:47:07 10° N
Cosmos 773 Rocket 4.4 01:37:10 10° N 01:42:14 47° ENE 01:45:41 19° SE
Cosmos 2322 Rocket 3.8 01:41:30 14° ESE 01:42:25 14° E 01:45:16 10° ENE
Cosmos 2369 3.7 01:37:49 10° SSW 01:43:28 87° WNW 01:49:10 10° NNE
Cosmos 1464 Rocket 4.0 01:40:45 10° S 01:46:57 84° W 01:53:09 10° N
ARIANE 5 R/B 4.3 01:46:14 14° E 01:48:28 20° ENE 01:51:45 10° NNE
Cosmos 1697 Rocket 3.9 01:46:45 10° SW 01:52:09 45° WNW 01:57:35 10° NNE
Meteor 1-19 Rocket 4.1 01:46:55 10° S 01:52:17 65° E 01:57:38 10° NNE
Cosmos 389 Rocket 3.0 01:50:46 10° NNW 01:54:13 56° W 01:56:49 16° S
Cosmos 44 Rocket 4.4 01:50:25 10° NNW 01:54:41 32° NE 01:57:34 17° ESE
CZ-4B R/B 3.2 01:52:56 10° N 01:55:48 31° WNW 01:58:36 10° SW
Cosmos 1975 3.9 01:55:34 10° NNE 01:59:11 30° ENE 02:00:36 24° ESE
MetOp-B 4.2 01:56:39 16° S 02:01:00 78° WSW 02:06:23 10° NNW
Cosmos 1092 Rocket 4.3 01:56:22 10° N 02:02:22 52° ENE 02:06:04 23° SE
Cosmos 2297 Rocket 4.3 01:58:43 10° NW 02:02:50 21° W 02:06:56 10° SSW
Nadezhda 4 Rocket 4.0 01:56:45 10° N 02:02:59 89° W 02:07:53 17° S
ATLAS 2AS CENTAUR R/B 2.9 01:55:42 10° SSW 02:03:31 82° ESE 02:11:09 10° NE
Meteor 2-14 Rocket 4.4 01:58:18 10° N 02:04:25 80° E 02:08:47 20° SSE
Cosmos 1634 Rocket 4.3 02:03:53 22° SSE 02:07:40 47° E 02:13:32 10° NNE
Helios 1A Rocket 2.8 02:07:25 30° SSE 02:09:18 71° ENE 02:13:18 10° N
EXPRESS MD2 3.5 02:04:31 10° WNW 02:09:47 56° SW 02:10:54 36° SSE
Cosmos 1933 Rocket 4.4 02:06:44 10° NNW 02:11:02 47° W 02:14:36 14° SSW
Meteor 2-9 Rocket 4.2 02:08:17 10° N 02:14:05 89° WSW 02:17:43 23° S
ERS-1 Rocket 3.1 02:12:29 28° SE 02:15:04 60° ENE 02:20:02 10° N
Cosmos 1733 Rocket 4.1 02:13:44 10° NNE 02:17:43 31° ENE 02:18:59 27° ESE
CZ-2C R/B 3.8 02:15:21 10° NNE 02:20:05 62° E 02:22:29 28° S
SJ 16-02 1.9 02:17:01 10° SSW 02:21:19 57° WNW 02:25:39 10° N
SL-16 R/B 2.6 02:18:47 27° SSE 02:21:24 44° ESE 02:26:44 10° NE
Cosmos 2026 Rocket 4.0 02:21:12 10° N 02:27:24 70° E 02:30:42 29° SSE
Timation 2 Rocket 4.5 02:21:18 10° NNW 02:27:48 61° WSW 02:32:04 23° S
NOSS 2-1 (E) 2.8 02:29:30 58° ESE 02:29:30 58° ESE 02:32:29 10° NE
Cosmos 1862 Rocket 4.2 02:28:51 35° ESE 02:29:41 39° E 02:33:51 10° NNE
ATLAS 3B R/B 3.4 02:23:09 10° NNW 02:30:20 52° NE 02:35:07 23° ESE
BREEZE M DEB (TANK) 4.1 02:29:33 10° WNW 02:34:03 88° SW 02:47:28 17° ESE
Cosmos 1441 Rocket 4.1 02:35:54 31° E 02:35:54 31° E 02:38:53 10° NNE
Cosmos 1346 Rocket 2.7 02:36:33 49° SSE 02:37:30 71° E 02:41:31 10° NNE
Meteor 1-18 Rocket 4.3 02:34:06 18° SSW 02:38:26 77° W 02:44:06 10° N
Meteor 2-8 Rocket 4.4 02:37:05 27° S 02:40:31 77° E 02:46:37 10° N
Cosmos 2278 4.3 02:36:37 10° SW 02:42:09 56° WNW 02:47:46 10° NNE
Gblst 52 Del rocket 4.5 02:36:28 10° SW 02:43:12 58° SE 02:49:06 10° ENE
Resurs 01 Rocket 4.1 02:41:00 10° SW 02:43:32 15° W 02:46:05 10° NW
SPOT 5 3.3 02:43:22 29° S 02:45:58 62° W 02:51:06 10° NNW
Terra 1.7 02:44:34 41° SSE 02:46:14 87° WSW 02:51:02 10° NNW
Cosmos 2360 Rocket 3.0 02:45:49 31° ESE 02:46:15 31° ESE 02:51:10 10° NE
Cosmos 2292 Rocket 3.1 02:44:48 10° NNW 02:47:42 51° W 02:47:45 51° W
Iridium 2 4.3 02:44:49 10° N 02:48:20 40° E 02:48:20 40° E
Cosmos 2263 Rocket 2.5 02:46:33 10° NNW 02:52:01 56° WSW 02:54:16 34° S
ISS -3.7 02:49:53 10° NW 02:53:04 78° NNW 02:53:04 78° NNW
Cosmos 1378 4.2 02:52:06 26° SW 02:53:36 40° WNW 02:57:04 10° N
Meteor 2-15 4.4 02:52:59 30° S 02:56:12 88° W 03:02:18 10° N
Cosmos 990 Rocket 4.1 02:57:52 47° SSE 02:58:59 57° ESE 03:04:08 10° NNE
Okean 1-7 3.9 03:07:49 35° E 03:07:49 35° E 03:11:33 10° NNE
NOSS 2-1 (C) 4.3 03:07:58 20° WSW 03:09:47 36° NW 03:12:48 10° NNE
Cosmos 2279 Rocket 3.9 03:07:07 36° S 03:09:50 90° WSW 03:16:06 10° N
Cosmos 1066 Rocket 4.2 03:10:46 46° SSE 03:12:29 73° E 03:18:09 10° NNE
Iridium 4 Rocket 4.2 03:08:23 10° NNE 03:12:40 35° E 03:13:02 34° E
Cosmos 1898 Rocket 3.7 03:12:30 49° SE 03:13:03 51° ESE 03:18:11 10° NNE
Cosmos 1805 3.4 03:10:18 10° N 03:13:59 61° ENE 03:13:59 61° ENE
Transit 2A Rocket 4.4 03:11:52 10° NW 03:16:14 68° WSW 03:16:30 66° SW
SL-24 R/B - RUBIN 2 3.8 03:13:23 10° NW 03:17:43 55° WSW 03:18:06 53° SW
USA 215 3.3 03:17:19 10° NE 03:23:43 54° SE 03:25:34 42° S
ATLAS CENTAUR R/B 3.1 03:19:57 10° NNW 03:24:14 30° NE 03:25:48 24° E
ARIANE 5 R/B 3.4 03:23:46 37° SW 03:24:36 41° W 03:28:53 10° NNW
Cosmos 2322 Rocket 2.2 03:23:15 35° SSW 03:25:41 78° WNW 03:31:20 10° NNE
Cosmos 1733 3.3 03:22:30 10° N 03:25:54 70° N 03:25:54 70° N
BREEZE-M DEB (TANK) 2.3 03:23:39 10° WNW 03:26:18 89° NNE 03:26:21 88° E
ADEOS Rocket 4.5 03:26:19 18° E 03:28:35 22° ENE 03:33:04 10° N
Cosmos 1766 3.9 03:25:48 10° N 03:29:11 45° NE 03:29:11 45° NE
Cosmos 2333 Rocket 2.7 03:31:12 41° ESE 03:31:12 41° ESE 03:36:28 10° NE
Cosmos 1844 Rocket 2.8 03:26:06 10° NNW 03:31:40 64° ENE 03:32:53 51° ESE
Cosmos 44 Rocket 4.2 03:31:57 10° NW 03:36:08 32° WSW 03:36:16 32° WSW
Meteor 1-4 Rocket 3.3 03:32:47 10° NNW 03:35:33 48° NW 03:35:33 48° NW
Cosmos 1703 Rocket 3.5 03:39:39 74° ENE 03:39:39 74° ENE 03:43:56 10° NNE
Meteor 1-23 Rocket 4.3 03:40:45 56° SE 03:41:39 64° E 03:47:25 10° NNE
Cosmos 2219 Rocket 2.6 03:49:49 43° E 03:49:49 43° E 03:54:54 10° NE
Cosmos 372 Rocket 4.1 03:51:00 56° E 03:51:00 56° E 03:55:54 10° NNE
ERS-2 4.1 03:48:23 10° NE 03:50:03 22° NE 03:50:03 22° NE
Cosmos 1844 3.6 03:50:16 10° NNW 03:56:07 85° ENE 03:57:04 64° SE
Cosmos 1782 Rocket 3.7 03:52:16 10° N 03:56:17 64° NE 03:56:17 64° NE
USA 267 4.3 03:52:06 10° E 03:58:11 42° NNE 04:04:15 10° NW
Intercosmos 25 4.4 03:52:13 10° N 04:00:32 71° ENE 04:01:36 58° SE
Cosmos 1726 3.1 03:59:35 10° NNW 04:02:17 46° NNW 04:02:17 46° NNW
SL-16 R/B 3.9 04:00:44 10° WSW 04:05:38 30° NW 04:10:35 10° N
Cosmos 1470 3.8 04:01:54 10° N 04:04:47 39° NE 04:04:47 39° NE
Cosmos 1908 Rocket 4.2 04:03:17 10° NNW 04:07:12 46° W 04:07:12 46° W
Meteor 2-10 4.5 04:06:24 10° NNW 04:11:23 46° W 04:11:51 45° WSW
Cosmos 1300 Rocket 4.1 04:08:09 10° N 04:11:58 49° ENE 04:11:58 49° ENE
Cosmos 2242 Rocket 3.9 04:13:47 63° WNW 04:13:47 63° WNW 04:18:15 10° N
ALOS 2 2.8 04:14:10 64° NE 04:14:10 64° NE 04:18:13 10° N
Cosmos 1655 Rocket 4.3 04:11:36 10° NNW 04:17:40 56° W 04:18:59 47° SW
Cosmos 1626 4.3 04:20:39 20° NE 04:20:39 20° NE 04:22:17 10° NE
Cosmos 2237 Rocket 3.9 04:20:21 19° E 04:20:21 19° E 04:23:50 10° NE
Okean 2 Rocket 4.3 04:16:07 10° N 04:20:07 33° ENE 04:20:07 33° ENE
ATLAS 3B R/B 3.5 04:14:10 10° NW 04:20:58 39° WSW 04:22:21 36° SW
Cosmos 1842 4.2 04:24:27 46° NW 04:24:27 46° NW 04:27:29 10° N
COSMOS 2428 2.8 04:23:47 59° ESE 04:23:50 59° ESE 04:29:25 10° NNE
Cosmos 1937 Rocket 4.0 04:23:07 45° WSW 04:24:12 52° WNW 04:29:22 10° N
CZ-4C R/B 3.4 04:17:45 10° NNW 04:24:57 59° NE 04:29:38 28° ESE
Cosmos 2360 Rocket 3.3 04:27:32 25° WSW 04:30:06 39° WNW 04:35:23 10° N
NOSS 3-1 (C) 4.1 04:24:59 10° NW 04:32:37 85° NE 04:36:05 42° SE
Cosmos 1674 4.2 04:34:44 31° NE 04:34:44 31° NE 04:37:02 10° NNE
In-Cosmos 22 4.1 04:34:14 68° ESE 04:34:32 70° E 04:40:01 10° NNE
Cosmos 1867 3.4 04:35:35 77° ESE 04:35:37 77° ESE 04:41:06 10° NE
Meteor 1-21 4.1 04:41:33 73° S 04:42:09 86° E 04:48:00 10° N
Cosmos 1758 4.1 04:42:42 10° N 04:45:45 49° NNE 04:45:45 49° NNE
Sich 1 Rocket 3.8 04:42:31 10° N 04:46:22 66° N 04:46:22 66° N
Nimbus 7 Rocket 4.4 04:41:45 10° NNE 04:47:36 63° ESE 04:48:07 60° SE
USA 306 4.5 04:54:15 27° ENE 04:54:15 27° ENE 04:56:16 10° ENE
Cosmos 2278 Rocket 3.1 04:46:58 10° NNW 04:52:21 41° ENE 04:54:16 31° ESE
SL-08 R/B 4.5 04:47:37 10° N 04:53:56 77° E 04:55:04 61° SSE
Cosmos 1818 4.3 04:50:11 10° NW 04:54:36 39° W 04:54:36 39° W
Okean 1 Rocket 4.2 04:51:50 10° N 04:55:52 34° ENE 04:55:52 34° ENE
Cosmos 1461 3.5 04:55:40 10° NNW 04:58:54 53° NNW 04:58:54 53° NNW
Cosmos 220 Rocket 4.5 05:00:58 56° NNW 05:00:58 56° NNW 05:04:28 10° NNE
Cosmos 371 Rocket 3.8 05:02:45 48° E 05:02:45 48° E 05:06:59 10° NNE
Lacrosse 5 3.7 05:04:31 19° E 05:04:31 19° E 05:06:44 10° ENE
ATLAS CENTAUR R/B 2.9 04:58:39 10° NW 05:01:48 32° WNW 05:01:48 32° WNW
USA 215 3.9 05:00:23 10° NE 05:06:41 52° NNW 05:12:52 11° WSW
SL-16 R/B 4.1 05:07:55 16° ESE 05:08:23 16° E 05:11:39 10° ENE
Cosmos 1417 Rocket 4.3 05:10:23 65° S 05:11:23 86° E 05:17:36 10° N
Cosmos 1980 3.8 05:11:35 56° ESE 05:11:47 56° ESE 05:17:18 10° NNE
ADEOS Rocket 3.0 05:13:15 54° WSW 05:13:37 55° W 05:19:27 10° NNW
Cosmos 1674 Rocket 3.8 05:14:23 65° N 05:14:23 65° N 05:18:07 10° N
Cosmos 1844 Rocket 4.5 05:11:21 10° WNW 05:14:32 18° W 05:14:32 18° W
Cosmos 2333 Rocket 3.6 05:13:10 23° W 05:15:33 31° NW 05:20:34 10° N
ASTEX 1 3.3 05:11:37 10° N 05:16:31 74° W 05:16:31 74° W
Cosmos 2221 Rocket 4.2 05:20:54 48° WNW 05:20:54 48° WNW 05:24:47 10° N
ERS-2 4.4 05:22:20 10° NNW 05:24:27 17° WNW 05:24:27 17° WNW
USA 308 3.5 05:27:57 52° NE 05:27:57 52° NE 05:31:10 10° NE
Cosmos 1378 Rocket 3.9 05:28:59 60° NW 05:28:59 60° NW 05:32:59 10° N
Cosmos 1300 3.9 05:25:26 10° N 05:28:26 39° NE 05:28:26 39° NE
Cosmos 1709 Rocket 4.2 05:25:45 10° N 05:31:49 62° E 05:33:27 46° SE
Cosmos 1455 Rocket 4.5 05:29:03 10° NNE 05:33:00 30° ENE 05:33:44 28° E
Cosmos 2219 Rocket 3.7 05:31:30 22° W 05:33:43 29° NW 05:38:33 10° N
Cosmos 2150 Rocket 3.8 05:33:55 75° WSW 05:34:13 78° WNW 05:39:24 10° NNE
Cosmos 2315 Rocket 4.2 05:33:04 49° SE 05:34:34 62° E 05:40:51 10° NNE
Cosmos 1386 Rocket 4.3 05:30:46 10° NNW 05:36:46 72° W 05:37:41 61° SSW
Cosmos 494 Rocket 4.0 05:31:55 10° NNW 05:36:47 63° W 05:36:47 63° W
Cosmos 1048 Rocket 4.2 05:33:16 10° NNW 05:38:01 55° W 05:38:01 55° W
SL-14 R/B 3.9 05:39:35 53° N 05:39:35 53° N 05:42:37 10° N
S3M 4.0 05:38:12 56° SW 05:39:31 72° W 05:45:54 10° N
USA 267 3.1 05:38:54 47° SSE 05:40:55 72° SW 05:47:29 10° NW
CZ-2D R/B 3.5 05:39:08 10° NE 05:43:35 26° E 05:44:50 24° ESE
Meteor 1-16 Rocket 4.3 05:38:44 10° NNW 05:44:35 62° W 05:45:16 58° SW
Cosmos 1125 Rocket 3.6 05:44:18 57° W 05:44:50 60° WNW 05:50:00 10° NNE
NOSS 2-2 (C) 4.3 05:41:00 10° NW 05:46:21 81° SW 05:48:31 46° SSE
Cosmos 405 Rocket 4.1 05:48:25 30° NW 05:48:25 30° NW 05:51:05 10° N
Cosmos 1975 Rocket 3.6 05:48:04 48° E 05:48:06 48° E 05:52:24 10° NNE
USA 305 3.5 05:49:28 48° NW 05:49:41 49° NNW 05:53:45 10° NE
USA 229 DEB 3.9 05:42:23 10° NW 05:49:49 73° WSW 05:52:45 42° SSE
USA 229 3.9 05:42:28 10° NW 05:49:54 74° WSW 05:52:53 41° SSE
Cosmos 1025 Rocket 3.8 05:50:45 40° E 05:50:49 40° E 05:54:52 10° NNE
Cosmos 839 Rocket 4.2 05:47:24 10° NNW 05:53:54 83° WSW 05:57:08 37° SSE
Cosmos 1626 4.3 05:55:00 18° WNW 05:55:00 18° WNW 05:56:59 10° NNW
Cosmos 1437 Rocket 4.1 05:52:30 10° NNW 05:54:47 30° NW 05:54:47 30° NW
NOSS 0 Rocket 4.4 05:56:55 39° WSW 05:58:52 53° WNW 06:04:59 10° NNE
Meteor 2-5 Rocket 4.2 05:57:39 43° SE 05:59:05 55° E 06:04:36 10° NNE
Lacrosse 5 rocket 2.7 06:01:10 27° E 06:01:10 27° E 06:03:33 10° ENE
Cosmos 2237 Rocket 2.4 06:02:09 49° WSW 06:03:23 61° WNW 06:09:04 10° NNE
Cosmos 332 Rocket 3.6 06:04:18 75° WSW 06:04:36 79° WNW 06:09:25 10° NNE
Cosmos 1953 3.6 06:04:27 10° NNW 06:07:09 30° WNW 06:07:09 30° WNW
COSMOS 2428 4.5 06:05:45 17° W 06:08:30 23° NW 06:12:59 10° N
Resurs 1-4 Rocket 2.8 06:03:51 10° NNE 06:08:54 45° E 06:10:14 37° SE
CZ-4 R/B 4.5 06:05:36 10° NNE 06:10:01 42° E 06:10:45 39° SE
GP-B 3.0 06:07:15 10° N 06:11:42 75° W 06:11:45 75° W
CZ-4C R/B 3.6 06:06:35 10° NW 06:13:31 38° WSW 06:14:45 36° SW
Cosmos 1544 Rocket 4.3 06:15:21 10° N 06:19:38 47° ENE 06:20:48 37° ESE
Cosmos 1943 Rocket 2.7 06:14:02 10° NNW 06:19:39 57° ENE 06:23:41 19° SE
IDEFIX/ARIANE 42P 4.2 06:16:38 10° NE 06:20:58 25° E 06:23:29 18° SE
ADEOS II 3.4 06:17:37 10° NE 06:22:16 31° E 06:24:27 23° SE
Thor Agena Rocket 3.6 06:19:35 10° N 06:24:52 70° WNW 06:26:03 52° SW
Cosmos 2297 4.5 06:21:03 10° NNW 06:26:39 51° ENE 06:32:10 10° SE
MOS 1 Rocket 4.3 06:31:06 22° SE 06:33:21 39° ENE 06:37:21 10° N
USA 307 4.4 06:34:07 21° WNW 06:36:06 31° NNW 06:39:51 10° NE
Cosmos 2278 Rocket 3.2 06:31:23 10° NW 06:36:05 29° W 06:36:05 29° W
NPP 3.7 06:38:41 10° NNE 06:44:06 77° ESE 06:46:05 40° S
Lacrosse 5 2.0 06:43:42 41° WSW 06:45:24 67° NW 06:50:30 10° NE
ATLAS 5 CENTAUR R/B 3.9 06:40:04 10° NW 06:45:39 23° W 06:45:39 23° W
Cosmos 2084 Rocket 4.1 06:45:29 35° WNW 06:46:04 37° NW 06:49:38 10° NNE
Cosmos 2154 Rocket 4.4 06:40:54 10° N 06:47:11 62° E 06:51:57 18° SSE
Cosmos 2369 Rocket 3.5 06:44:14 10° N 06:49:29 39° ENE 06:54:40 10° SE
SL-16 R/B 2.2 06:49:47 41° SW 06:51:47 73° WNW 06:57:29 10° NNE
Cosmos 1455 2.0 06:48:38 10° N 06:52:21 84° E 06:52:50 66° SSE
SME Rocket 3.7 06:58:11 37° W 06:58:18 37° W 07:02:46 10° NNW
AQUA 3.8 06:55:02 10° NNE 06:59:49 83° ESE 07:01:35 39° S
Cosmos 1269 Rocket 4.2 06:55:17 10° NNW 07:00:22 50° WSW 07:01:45 39° SSW
Cosmos 1271 Rocket 3.3 06:57:28 10° N 07:01:15 55° ENE 07:03:04 28° SE
SL-16 R/B 2.5 07:01:09 25° S 07:04:54 75° WSW 07:11:10 10° NNW
Cosmos 2228 3.9 07:01:37 10° N 07:05:50 46° ENE 07:09:09 15° SSE
Iridium 82 4.5 07:05:47 54° SSE 07:06:32 81° E 07:10:04 10° N
Cosmos 2074 Rocket 4.0 07:03:34 10° NNW 07:09:47 64° W 07:13:08 28° SSW
Cosmos 1455 Rocket 4.4 07:07:05 10° NW 07:10:39 24° W 07:10:49 24° W
SAR-Lupe-2 3.6 07:11:06 10° N 07:14:39 65° WNW 07:15:21 51° SW
Cosmos 1295 Rocket 4.5 07:08:40 10° N 07:15:03 88° W 07:19:56 18° S
Meteor 1-24 Rocket 4.4 07:14:11 28° WSW 07:16:16 38° WNW 07:21:22 10° N
Cosmos 1536 Rocket 3.6 07:16:40 39° SW 07:18:08 63° W 07:22:31 10° N
COSMOS 2455 2.9 07:18:09 30° SW 07:21:18 76° WNW 07:27:22 10° NNE
Cosmos 292 Rocket 3.8 07:20:54 34° SW 07:22:58 71° WNW 07:27:46 10° NNE
DNEPR-1 R/B 4.4 07:21:45 25° S 07:23:39 41° ESE 07:27:53 10° NE
CZ-2D R/B 2.8 07:18:45 10° N 07:23:45 41° WNW 07:26:09 26° WSW
Cosmos 2184 Rocket 4.3 07:20:04 10° NNW 07:26:03 49° W 07:29:21 25° SSW
Cosmos 1610 Rocket 4.4 07:22:41 10° NNW 07:28:49 71° W 07:33:27 18° S
GPS 2-04 Rocket1 4.3 07:31:42 16° SSE 07:31:42 16° SSE 07:33:26 10° ESE
Cosmos 1328 4.5 07:31:00 18° SSE 07:33:41 51° E 07:37:34 10° NNE
MSX 3.8 07:30:20 10° NNE 07:36:09 89° ESE 07:40:20 20° SSW
Helios 1B rocket 3.9 07:33:37 10° NNE 07:37:18 32° E 07:40:58 10° SSE
Lacrosse 5 rocket 2.6 07:36:40 18° W 07:39:00 32° NNW 07:42:42 10° NNE
Cosmos 1606 Rocket 3.6 07:38:20 10° N 07:42:45 78° E 07:47:07 10° SSE
Cosmos 962 Rocket 4.4 07:36:44 10° N 07:42:54 90° E 07:49:01 10° S
OAO 2 Rocket 4.4 07:42:53 22° SSW 07:44:34 27° SSE 07:48:41 10° ESE
Cosmos 1943 3.2 07:41:37 20° SSW 07:45:36 82° ESE 07:51:19 10° NNE
Cosmos 2181 Rocket 4.4 07:40:49 10° S 07:46:57 63° E 07:53:02 10° NNE
Cosmos 1703 3.8 07:45:42 27° SW 07:47:22 43° WNW 07:51:08 10° N
Resurs 1-4 Rocket 3.5 07:44:15 10° N 07:48:26 25° WNW 07:51:19 16° WSW
EO 1 Del DPAF 3.8 07:47:53 10° N 07:51:08 36° WNW 07:52:35 24° WSW
Meteor 2-1 Rocket 4.2 07:46:51 10° N 07:52:38 89° W 07:58:15 10° S
Helios 1A 3.5 07:51:32 21° SSW 07:53:52 40° W 07:57:52 10° NNW
ARIANE 5 R/B 4.3 07:50:24 10° NE 07:54:44 28° E 07:59:00 10° SSE
NOSS 3-3 (A) 3.8 07:52:29 20° SW 07:56:29 81° NW 08:02:55 10° NE
NOSS 3-3 (C) 3.8 07:52:35 20° SW 07:56:35 82° NW 08:03:01 10° NE
CBERS-1 4.2 07:53:12 10° NNE 07:58:20 73° ESE 08:03:21 11° S
Lacrosse 4 Rocket 3.4 07:56:26 10° SSE 07:59:51 23° ESE 08:03:13 10° NE
IDEFIX/ARIANE 42P 3.2 07:55:43 10° N 08:00:39 42° WNW 08:04:17 17° SW
ADEOS II 3.0 07:57:13 10° N 08:01:55 34° WNW 08:05:23 16° WSW
Cosmos 1943 Rocket 3.5 07:58:46 10° NW 08:02:54 21° W 08:05:07 17° SW
Cosmos 2056 Rocket 3.9 07:59:06 11° S 08:04:02 61° ESE 08:09:14 10° NNE
BREEZE-M DEB (TANK) 4.1 08:02:27 17° SSW 08:04:33 40° SE 08:11:45 10° ENE
Cosmos 1408 3.3 08:01:29 10° S 08:05:01 51° E 08:08:33 10° NNE
FENGYUN 3A 4.3 07:59:57 10° NNE 08:05:14 55° E 08:10:29 10° S
Cosmos 1892 3.6 08:03:44 10° SSE 08:07:22 47° E 08:11:00 10° NNE
SL-19 R/B 4.4 08:02:23 10° NNE 08:08:31 87° WNW 08:14:16 10° SSW
ALOS 3.1 08:06:20 10° NNE 08:10:52 49° E 08:15:22 10° S
Cosmos 2263 4.2 08:05:45 10° NNW 08:11:23 67° WSW 08:17:03 10° SSE
IRS-1D 3.8 08:06:38 10° N 08:11:51 56° WNW 08:16:22 13° SW
Cosmos 2251 Rocket 4.0 08:09:51 10° NW 08:14:45 41° WSW 08:19:40 10° S
Cosmos 1892 Rocket 3.7 08:13:50 12° SSW 08:17:54 63° W 08:22:22 10° N
Cosmos 1190 Rocket 4.2 08:13:17 10° NNW 08:18:37 82° ENE 08:23:55 10° SSE
Cosmos 1726 Rocket 3.8 08:17:31 10° NNW 08:21:47 50° W 08:26:00 10° SSW
Cosmos 2366 rocket 4.0 08:20:37 10° NNW 08:26:45 71° W 08:32:54 10° S
CZ-2C R/B 2.7 08:23:54 10° NNE 08:29:01 73° ESE 08:33:57 10° S
Lacrosse 5 3.9 08:25:19 10° WNW 08:29:13 21° NNW 08:33:06 10° NNE
Cosmos 2341 Rocket 4.4 08:24:56 10° NNW 08:30:58 46° W 08:37:00 10° SSW
PAYLOAD A 4.0 08:26:21 10° NNE 08:31:06 75° ESE 08:35:57 10° S
SL-8 Rocket 4.2 08:27:04 10° NNW 08:33:11 53° W 08:39:16 10° SSW
Cosmos 2369 Rocket 2.9 08:28:30 10° NW 08:33:21 31° WSW 08:38:11 10° SSW
IRS-P3 4.4 08:29:35 10° NNE 08:34:57 75° ESE 08:40:16 10° S
Cosmos 1656 Rocket 4.1 08:30:10 10° NW 08:35:06 37° WSW 08:40:02 10° S
SL-16 R/B 4.3 08:34:11 10° WNW 08:36:57 14° NW 08:39:44 10° NNW
Meteor 1-29 3.4 08:34:09 10° NNE 08:37:22 56° E 08:40:34 10° S
Cosmos 676 Rocket 4.4 08:32:02 10° NNW 08:37:23 72° ENE 08:42:42 10° SSE
BREEZE-M DEB (TANK) 2.8 08:44:06 10° WSW 08:48:03 47° NNW 08:50:12 10° NE
In-Cosmos 22 Rocket 4.3 08:43:17 10° SSW 08:49:04 82° W 08:54:57 10° N
SL-16 R/B 4.4 08:48:26 10° W 08:49:30 10° W 08:50:33 10° WNW
Cosmos 1420 Rocket 4.1 08:45:06 10° SSW 08:50:14 66° WNW 08:55:25 10° NNE
SL-08 R/B 3.6 08:50:12 10° SSE 08:54:46 74° ENE 08:59:26 10° N
Meteor 1-27 4.3 08:49:57 10° NNW 08:55:44 84° W 09:01:24 10° S
CZ-3 R/B 4.1 08:52:46 10° W 09:28:28 47° SSW 09:38:05 10° SE
